BEEAGLESAT (42736 NORAD) Tracking and Keplerian Element Data

This shows tracking and keplerian element data for the satellite.

Feedback or suggestion? Click here.




ElementValue
Catalog42736
NameBEEAGLESAT
Epoch Orbit8434
Epoch Day320.17120955
Epoch Year2018
RAAN299.8471
Inclination51.6323
Eccentricity0.0006793
Argument of Perigee79.7897
Mean Anonmoly280.387
Mean Motion15.77624421
Decay Rate0.00038701
L11 42736U 98067MR 18320.17120955 .00038701 00000-0 22943-3 0 9998
L22 42736 51.6323 299.8471 0006793 79.7897 280.3870 15.77624421 84342

Live tracking and technical data element details for BEEAGLESAT (NORAD 42736). BEEAGLESAT can be tracked NOW for your location showing map with azimuth and elevation plus other details from your city location.

Track the satellite on the map from your city or location and see movement details for azimuth, elevation, latitude, longitude, range, height, and movement on the map or in text.







IsCatalogInMostPopularTable: catalog: 42736, numindb: 154
Update: records affected: 1



GetName: 42736 BEEAGLESAT

Hit Count: updated at: Fri, 16 Nov 2018 12:08:02 GMT